Regional Weather Roundup
Issued by NWS Little Rock, AR

Home | Current Version | Previous Version | Text Only | Print | Product List | Glossary Off
Versions: 1 2 3 4 5 6 7 8 9 10 11 12 13 14 15 16 17 18 19 20 21 22 23 24 25 26 27 28 29 30 31 32 33 34 35 36 37 38 39 40 41 42 43 44 45 46 47 48 49 50

660
ASUS44 KLZK 272005
RWRLZK

WEATHER ROUNDUP FOR ARKANSAS
NATIONAL WEATHER SERVICE LITTLE ROCK AR
300 PM CDT MON MAR 27 2017

NOTE: "FAIR" INDICATES FEW OR NO CLOUDS BELOW 12,000 FEET WITH NO
SIGNIFICANT WEATHER AND/OR OBSTRUCTIONS TO VISIBILITY.

ARZ001-003-010-029-272100-
NORTHWEST ARKANSAS

CITY           SKY/WX    TMP DP  RH WIND       PRES   REMARKS
FAYETTEVILLE   CLOUDY    57  56  96 NW7       29.89R
FORT SMITH     CLOUDY    64  53  67 W12       29.88R
HARRISON       PTSUNNY   67  55  65 NW12      29.84S
BENTONVILLE    CLOUDY    55  52  88 NW9       29.89S
ROGERS         CLOUDY    57  53  86 W12       29.89R
SILOAM SPGS    CLOUDY    55  48  76 NW10      29.90R
HIGHFILL       CLOUDY    56  53  90 NW9       29.89R
SPRINGDALE     CLOUDY    57  55  94 W8        29.90S
$$

ARZ004-005-016-272100-
NORTH CENTRAL ARKANSAS

CITY           SKY/WX    TMP DP  RH WIND       PRES   REMARKS
BATESVILLE     PTSUNNY   73  63  68 W12       29.78F
FLIPPIN        MOSUNNY   66  54  63 NW13      29.80F
MTN HOME       MOSUNNY   66  56  70 N8        29.81F
$$

ARZ040-041-272100-
WEST CENTRAL ARKANSAS

CITY           SKY/WX    TMP DP  RH WIND       PRES   REMARKS
MENA           SUNNY     72  61  68 W13G18    29.87R
MOUNT IDA      SUNNY     78  57  48 NW8       29.80S
$$

ARZ009-017-025-026-028-272100-
NORTHEAST ARKANSAS

CITY           SKY/WX    TMP DP  RH WIND       PRES   REMARKS
CORNING        FAIR      64  59  82 N6        29.80F
JONESBORO      PTSUNNY   72  65  78 NW13      29.77F
NEWPORT        PTSUNNY   69  63  81 N5        29.77F
WALNUT RIDGE   MOSUNNY   64  57  77 NW6       29.80F
BLYTHEVILLE    CLOUDY    69  65  86 SW6       29.79S
NW BLYTHEVILLE CLOUDY    66  63  88 N5        29.79S
$$

ARZ022-023-033-042-044-272100-
CENTRAL ARKANSAS

CITY           SKY/WX    TMP DP  RH WIND       PRES   REMARKS
LITTLE ROCK    MOSUNNY   80  63  55 W12G21    29.79F
N LITTLE ROCK    N/A     76  62  62 W8G20     29.79F
JACKSONVILLE   MOSUNNY   79  63  56 SW17G24   29.78F
CONWAY           N/A     77  64  65 NW14      29.77F
SEARCY         MOSUNNY   79  62  56 SW15      29.78F
HOT SPRINGS    MOSUNNY   79  60  52 W13G24    29.81F
RUSSELLVILLE   MOSUNNY   73  58  59 W17G24    29.81S
CLINTON        FAIR      75  57  53 SW10G21   29.79F
$$

ARZ036-272100-
EAST ARKANSAS

CITY           SKY/WX    TMP DP  RH WIND       PRES   REMARKS
WEST MEMPHIS   PTSUNNY   78  65  63 SW13G21   29.77F
$$

ARZ050-053-066-070-073-272100-
SOUTHWEST ARKANSAS

CITY           SKY/WX    TMP DP  RH WIND       PRES   REMARKS
ARKADELPHIA    MOCLDY    79  63  57 W12G24    29.81F
CAMDEN         PTSUNNY   81  61  50 SW13G18   29.83F
TEXARKANA      MOSUNNY   80  64  58 W9        29.84F
EL DORADO      MOSUNNY   80  64  58 SW14G21   29.85F
DE QUEEN       SUNNY     74  60  61 SW9       29.83F
$$

ARZ056-057-069-272100-
SOUTHEAST ARKANSAS

CITY           SKY/WX    TMP DP  RH WIND       PRES   REMARKS
PINE BLUFF     MOSUNNY   80  61  52 SW15G25   29.81F
STUTTGART      MOSUNNY   81  59  47 SW18G28   29.81F
MONTICELLO       N/A    N/A N/A N/A MISG      29.82F

$$






USA.gov is the U.S. government's official web portal to all federal, state and local government web resources and services.